Weather in Bolshoye Savino

Russia / Perm Krai     57°55′28″N   56°00′34″E
temp.,
°C
wind,
m/s
gust,
m/s
humid.,
%
clouds,
%
prec.,
mm/h
press.,
hPa
HPBL,
m
27 february, sat
sat2723:00−19se399497 0.0 1019227
02:00−19se399338 0.0 1016246
05:00−20ese4108932 0.0 1015268
08:00−20ese41191100 0.0 1012311
11:00−17ese41086100 0.0 1010371
14:00−14ese4985100 0.0 1008516
17:00−13e4991100 0.2 1008702
20:00−15e5119099 0.3 1009581
28 february, sun
sun2823:00−19e4109097 0.3 1010467
02:00−20ene399379 0.0 1009334
05:00−21ene3109373 0.0 1010330
08:00−21ne4109380 0.0 1010343
11:00−18ene488985 0.0 1010481
14:00−15ene4787100 0.0 1010598
17:00−14ene4887100 0.1 1011652
20:00−17ene3992100 0.0 1013359
1 march, mon
mon123:00−21ne269475 0.0 1015147
02:00−23ne239417 0.0 101765
05:00−24ne22948 0.0 101927
08:00−25ne12940 0.0 102020
11:00−19ne12870 0.0 1021248
14:00−13ne128163 0.0 1020463
17:00−12nw118381 0.0 1020417
20:00−18sw119569 0.0 101920
2 march, tue
tue223:00−19sw129634 0.0 101920
02:00−20ssw22981 0.0 101720
05:00−21s229829 0.0 101528
08:00−20s269787 0.0 1013181
11:00−16s498893 0.0 1011433
14:00−12s41083100 0.0 1009564
17:00−12s41092100 0.3 1007566
20:00−13ssw3994100 0.7 1006598
3 march, wed
wed323:00−14s2895100 1.1 1005514
02:00−14sse2796100 0.4 1005413
05:00−14sse2596100 0.8 1004240
08:00−14sse2496100 0.5 1004180
11:00−12sse1292100 0.9 1004297
14:00−10se1188100 0.3 1003360
17:00−9e0191100 0.7 1003250
20:00−12nw0197100 0.2 100321